ARIANE 5 DEB (SYLDA), 44803

Orbit data source: Space-Track

ARIANE 5 DEB (SYLDA), 44803 is space debris in HEO originally from a launch on Tue, 26 Nov 2019 UTC launched from the French Guiana (FRGUI). Debris objects in space refer to the collection of defunct objects orbiting the Earth. Examples of debris include non-operational satellites, rocket bodies, and fragments generated from explosions, collisions, or faulty payload assembly.

Loading next visibility...
Identifier
44803, 2019-080D
Orbit
HEO
Last TLE update
1 day ago
Origin
Manufacturer
ADS/Bremen
Mission
Spacecraft
Bus & Motor
SYLDA 5, Unknown motor
Mass
440 kg wet, 440 kg dry
Launch date (UTC)
2019-11-26 (5 years ago)
Launch vehicle
Unknown
Launch site
French Guiana (FRGUI)
Object type
Payload
Rocket body
Debris
Shape & HBR
Cyl, Unknown HBR
Radar Cross Section
27.391 m², Large (>1 m²)

Expand to show TLE details & history

TLE from 1 day ago
0 ARIANE 5 DEB (SYLDA)
1 44803U 19080D   25127.88136884  .00135841  00000-0  57195-2 0  9991
2 44803   5.3302  30.6167 4609443 158.4573 229.8018  6.38156418 75273
Epoch: 2025-05-07T21:09Z
Definitive object data (Epoch: 2025-05-07T21:09:10.267Z)
Latitude
Longitude
-152.65602°
Altitude
10,549.579 km
Speed
3.826 km/s
True Right ascension
02h 02m 23s
True Declination
0° 00' 00"
Sunlit
Object was in daylight at TLE epoch
Visualization TLE readout
Latitude
-0.25345°
Longitude
-157.64302°
Altitude
11,087.614 km
Speed
3.629 km/s
Apparent Right ascension
01h 58m 54s
Apparent Declination
-10° 36' 14"
Sunlit
Object is in daylight
Visualization observer readout
Local Sidereal Time
14:58:14
Azimuth
28.238° NE
Elevation
-57.87°
Doppler factor
1
Orbital elements
Apogee altitude
11,566.316 km
Perigee altitude
242.964 km
Semi-major axis
12,282.777 km
Eccentricity
0.4609443
Inclination
5.3302°
RAAN
30.6167°
Arg. of periapsis
158.4573°
True anomaly
201.52252°
Mean anomaly
229.8018°
Eccentric anomaly
214.74862°
Mean motion
1.5944 °/min
BSTAR
0.0057195
Orbital period
225.79 mins
Loading maneuver chart data...
Loading SW <> Apogee altitude chart data...
Loading historical data...
Loading historical data...
Loading historical data...
Loading historical data...
Loading historical data...
Loading historical data...
Loading historical data...
Other satellites on launch #80 in the year 2019 (2019-11-26 UTC)

ARIANE 5 DEB (SYLDA) Visibility forecast

Observer location: undefined°, undefined°

Span
Click to sort rows by Start time (UTC) header in descending order
Start Az.
Max El. time (UTC)
Max El. Az.
Max El.
End time (UTC)
End Az.
96 mins2025-05-09 12:41:20.595Z195.487° SSW2025-05-09 13:13:20.595Z155.293° SSE19.587°2025-05-09 14:17:20.595Z120.989° SE
122 mins2025-05-09 17:00:20.595Z227.388° WSW2025-05-09 18:19:20.595Z182.122° SSW27.901°2025-05-09 19:02:20.595Z130.88° SE
33 mins2025-05-09 22:29:20.595Z236.769° WSW2025-05-09 22:52:20.595Z206.716° SW16.675°2025-05-09 23:02:20.595Z173.678° S
|